| time (UTC) | temp F | wind direction | speed knots | gust knots | rain 1hr in | rain 24hr in | rain mn in | humidity % | barometer mb |
| 20260506202805 | 45 | 26 | 3.5 | 5.2 | 0.00 | 1.18 | 1.18 | 99 | 1008.0 |
| 20260506202305 | 45 | 44 | 7.0 | 8.7 | 0.00 | 1.18 | 1.18 | 99 | 1007.4 |
| 20260506201758 | 45 | 45 | 2.6 | 5.2 | 0.00 | 1.18 | 1.18 | 99 | 1007.7 |
| 20260506201255 | 45 | 68 | 1.7 | 2.6 | 0.00 | 1.18 | 1.18 | 99 | 1007.8 |
| 20260506200753 | 45 | 27 | 2.6 | 4.3 | 0.00 | 1.18 | 1.18 | 99 | 1007.8 |
| 20260506200249 | 45 | 33 | 3.5 | 4.3 | 0.07 | 1.18 | 1.18 | 99 | 1008.0 |
| 20260506195745 | 44 | 61 | 0.9 | 1.7 | 0.07 | 1.18 | 1.18 | 99 | 1007.8 |
| 20260506195242 | 44 | 31 | 1.7 | 2.6 | 0.05 | 1.17 | 1.17 | 99 | 1008.0 |
| 20260506194739 | 44 | 3 | 2.6 | 4.3 | 0.12 | 1.17 | 1.17 | 99 | 1008.0 |
| 20260506194235 | 44 | 37 | 2.6 | 5.2 | 0.19 | 1.16 | 1.16 | 99 | 1008.3 |
| 20260506193734 | 44 | 64 | 2.6 | 4.3 | 0.12 | 1.15 | 1.15 | 99 | 1008.0 |
| 20260506193230 | 44 | 88 | 3.5 | 5.2 | 0.05 | 1.13 | 1.13 | 99 | 1008.0 |
| 20260506192726 | 44 | 21 | 3.5 | 4.3 | 0.05 | 1.13 | 1.13 | 99 | 1008.1 |
| 20260506192223 | 44 | 51 | 6.1 | 7.0 | 0.00 | 1.12 | 1.12 | 99 | 1008.2 |
| 20260506191720 | 44 | 32 | 3.5 | 5.2 | 0.07 | 1.12 | 1.12 | 99 | 1008.0 |
| 20260506191216 | 44 | 31 | 4.3 | 6.1 | 0.14 | 1.12 | 1.12 | 99 | 1008.0 |
| 20260506190714 | 44 | 18 | 2.6 | 4.3 | 0.07 | 1.11 | 1.11 | 99 | 1007.9 |
| 20260506190210 | 44 | 70 | 5.2 | 7.0 | 0.12 | 1.10 | 1.10 | 99 | 1008.0 |
| 20260506185708 | 44 | 26 | 7.0 | 9.6 | 0.17 | 1.10 | 1.10 | 99 | 1008.2 |
| 20260506185204 | 44 | 9 | 2.6 | 4.3 | 0.12 | 1.08 | 1.08 | 99 | 1008.3 |
| 20260506184702 | 44 | 72 | 1.7 | 2.6 | 0.28 | 1.08 | 1.08 | 99 | 1007.9 |
| 20260506184158 | 44 | 49 | 1.7 | 2.6 | 0.35 | 1.06 | 1.06 | 99 | 1008.1 |
| 20260506183655 | 44 | 47 | 2.6 | 2.6 | 0.31 | 1.03 | 1.03 | 99 | 1008.4 |
| 20260506183145 | 44 | 27 | 3.5 | 4.3 | 0.26 | 1.01 | 1.01 | 99 | 1007.9 |
| 20260506182643 | 44 | 47 | 0.9 | 2.6 | 0.19 | 0.98 | 0.98 | 99 | 1008.0 |
| 20260506182140 | 44 | 65 | 0.0 | 0.9 | 0.28 | 0.97 | 0.97 | 99 | 1008.3 |
| 20260506181638 | 44 | 60 | 3.5 | 5.2 | 0.40 | 0.95 | 0.95 | 99 | 1007.9 |
| 20260506181135 | 44 | 78 | 4.3 | 5.2 | 0.47 | 0.93 | 0.93 | 99 | 1007.9 |
| 20260506180632 | 45 | 30 | 1.7 | 1.7 | 0.35 | 0.89 | 0.89 | 99 | 1007.9 |
| 20260506180128 | 44 | 46 | 2.6 | 2.6 | 0.19 | 0.85 | 0.85 | 99 | 1007.9 |
| 20260506175624 | 45 | 36 | 1.7 | 2.6 | 0.12 | 0.83 | 0.83 | 99 | 1007.6 |
| 20260506175120 | 45 | 51 | 1.7 | 2.6 | 0.24 | 0.82 | 0.82 | 99 | 1007.7 |
| 20260506174619 | 45 | 55 | 2.6 | 4.3 | 0.35 | 0.81 | 0.81 | 99 | 1007.7 |
| 20260506174115 | 45 | 69 | 4.3 | 6.1 | 0.31 | 0.79 | 0.79 | 99 | 1008.0 |
| 20260506173613 | 45 | 15 | 1.7 | 1.7 | 0.19 | 0.75 | 0.75 | 99 | 1008.0 |
| 20260506173109 | 45 | 19 | 5.2 | 7.0 | 0.19 | 0.74 | 0.74 | 99 | 1007.8 |
| 20260506172607 | 45 | 30 | 1.7 | 2.6 | 0.24 | 0.72 | 0.72 | 99 | 1007.6 |
| 20260506172103 | 45 | 34 | 3.5 | 6.1 | 0.28 | 0.71 | 0.71 | 99 | 1007.8 |
| 20260506171601 | 45 | 341 | 4.3 | 5.2 | 0.19 | 0.68 | 0.68 | 99 | 1008.1 |
| 20260506171058 | 46 | 67 | 1.7 | 4.3 | 0.12 | 0.67 | 0.67 | 99 | 1007.9 |
| 20260506170555 | 46 | 19 | 0.9 | 0.9 | 0.12 | 0.66 | 0.66 | 99 | 1008.0 |
| 20260506170053 | 46 | 53 | 2.6 | 2.6 | 0.12 | 0.65 | 0.65 | 99 | 1007.9 |
| 20260506165551 | 46 | 34 | 4.3 | 6.1 | 0.12 | 0.64 | 0.64 | 99 | 1007.9 |
| 20260506165047 | 46 | 37 | 1.7 | 2.6 | 0.12 | 0.63 | 0.63 | 99 | 1008.2 |
| 20260506164544 | 46 | 56 | 2.6 | 2.6 | 0.14 | 0.62 | 0.62 | 99 | 1008.3 |
| 20260506164041 | 46 | 42 | 1.7 | 1.7 | 0.12 | 0.61 | 0.61 | 99 | 1007.9 |
| 20260506163537 | 46 | 48 | 1.7 | 1.7 | 0.12 | 0.60 | 0.60 | 99 | 1008.2 |
| 20260506163033 | 46 | 44 | 4.3 | 6.1 | 0.07 | 0.59 | 0.59 | 99 | 1008.4 |
| 20260506162530 | 46 | 8 | 2.6 | 2.6 | 0.12 | 0.59 | 0.59 | 99 | 1008.6 |
| 20260506162027 | 46 | 40 | 2.6 | 2.6 | 0.12 | 0.58 | 0.58 | 99 | 1007.8 |
| 20260506161525 | 46 | 19 | 0.9 | 0.9 | 0.19 | 0.57 | 0.57 | 99 | 1008.5 |
| 20260506161021 | 46 | 22 | 2.6 | 2.6 | 0.17 | 0.56 | 0.56 | 99 | 1008.4 |
| 20260506160519 | 46 | 289 | 7.0 | 7.8 | 0.24 | 0.55 | 0.55 | 99 | 1009.0 |
| 20260506160016 | 46 | 36 | 3.5 | 5.2 | 0.19 | 0.53 | 0.53 | 99 | 1008.2 |
| 20260506155514 | 46 | 31 | 1.7 | 1.7 | 0.19 | 0.51 | 0.51 | 99 | 1008.8 |
| 20260506153646 | 46 | 34 | 2.6 | 4.3 | 0.19 | 0.46 | 0.46 | 99 | 1008.7 |
| 20260506153143 | 46 | 6 | 4.3 | 5.2 | 0.17 | 0.45 | 0.45 | 99 | 1009.0 |
| 20260506152639 | 47 | 30 | 1.7 | 4.3 | 0.17 | 0.43 | 0.43 | 99 | 1008.8 |
| 20260506152137 | 47 | 60 | 0.9 | 2.6 | 0.19 | 0.42 | 0.42 | 99 | 1008.6 |
| 20260506151636 | 47 | 20 | 3.5 | 5.2 | 0.12 | 0.41 | 0.41 | 99 | 1008.9 |
| 20260506151132 | 47 | 19 | 1.7 | 2.6 | 0.12 | 0.39 | 0.39 | 99 | 1008.9 |
| 20260506150629 | 47 | 359 | 4.3 | 5.2 | 0.12 | 0.38 | 0.38 | 99 | 1009.3 |
| 20260506150126 | 47 | 38 | 2.6 | 4.3 | 0.12 | 0.37 | 0.37 | 99 | 1009.3 |
| 20260506145623 | 47 | 62 | 2.6 | 4.3 | 0.14 | 0.36 | 0.36 | 99 | 1009.0 |
| 20260506145120 | 47 | 48 | 1.7 | 2.6 | 0.12 | 0.35 | 0.35 | 99 | 1009.3 |
| 20260506144617 | 47 | 39 | 2.6 | 4.3 | 0.12 | 0.34 | 0.34 | 99 | 1009.5 |
| 20260506144114 | 47 | 76 | 2.6 | 4.3 | 0.19 | 0.33 | 0.33 | 99 | 1009.6 |
| 20260506143612 | 47 | 29 | 2.6 | 4.3 | 0.17 | 0.32 | 0.32 | 99 | 1009.6 |
| 20260506143109 | 48 | 49 | 1.7 | 1.7 | 0.17 | 0.30 | 0.30 | 99 | 1009.7 |
| 20260506142607 | 47 | 52 | 0.0 | 0.9 | 0.19 | 0.29 | 0.29 | 99 | 1010.0 |
| 20260506142105 | 48 | 48 | 3.5 | 4.3 | 0.17 | 0.28 | 0.28 | 99 | 1009.7 |
| 20260506141602 | 48 | 56 | 0.9 | 0.9 | 0.12 | 0.26 | 0.26 | 99 | 1009.6 |
| 20260506141101 | 48 | 25 | 0.9 | 1.7 | 0.12 | 0.25 | 0.25 | 99 | 1009.5 |
| 20260506140558 | 48 | 44 | 4.3 | 6.1 | 0.12 | 0.24 | 0.24 | 99 | 1009.9 |
| 20260506140055 | 48 | 37 | 1.7 | 2.6 | 0.14 | 0.23 | 0.23 | 99 | 1009.4 |
| 20260506135552 | 48 | 51 | 1.7 | 2.6 | 0.12 | 0.22 | 0.22 | 99 | 1009.4 |
| 20260506135048 | 48 | 38 | 0.0 | 0.9 | 0.12 | 0.21 | 0.21 | 99 | 1009.2 |
| 20260506134545 | 48 | 45 | 2.6 | 2.6 | 0.12 | 0.21 | 0.21 | 99 | 1009.2 |
| 20260506134040 | 48 | 22 | 4.3 | 6.1 | 0.05 | 0.19 | 0.19 | 99 | 1009.1 |
| 20260506133538 | 48 | 35 | 1.7 | 1.7 | 0.07 | 0.18 | 0.18 | 99 | 1009.1 |
| 20260506133035 | 49 | 45 | 4.3 | 5.2 | 0.12 | 0.18 | 0.18 | 99 | 1009.0 |
| 20260506132532 | 49 | 17 | 4.3 | 8.7 | 0.05 | 0.17 | 0.17 | 99 | 1009.2 |
| 20260506132029 | 50 | 89 | 3.5 | 5.2 | 0.07 | 0.16 | 0.16 | 99 | 1009.2 |
| 20260506131526 | 50 | 28 | 2.6 | 2.6 | 0.12 | 0.16 | 0.16 | 99 | 1008.9 |
| 20260506131023 | 50 | 12 | 2.6 | 4.3 | 0.12 | 0.15 | 0.15 | 99 | 1009.3 |
| 20260506130519 | 50 | 48 | 3.5 | 4.3 | 0.07 | 0.14 | 0.14 | 99 | 1009.4 |
| 20260506130017 | 51 | 29 | 4.3 | 7.0 | 0.05 | 0.13 | 0.13 | 99 | 1009.2 |
| 20260506125515 | 51 | 18 | 0.0 | 0.9 | 0.12 | 0.13 | 0.13 | 99 | 1009.4 |
| 20260506125013 | 51 | 46 | 4.3 | 5.2 | 0.14 | 0.12 | 0.12 | 99 | 1009.3 |
| 20260506124510 | 52 | 31 | 2.6 | 2.6 | 0.12 | 0.11 | 0.11 | 99 | 1009.4 |
| 20260506124008 | 52 | 69 | 0.9 | 0.9 | 0.12 | 0.10 | 0.10 | 99 | 1009.6 |
| 20260506123506 | 52 | 39 | 0.9 | 1.7 | 0.12 | 0.09 | 0.09 | 99 | 1009.6 |
| 20260506123003 | 52 | 38 | 1.7 | 1.7 | 0.12 | 0.08 | 0.08 | 99 | 1009.4 |
| 20260506122500 | 52 | 13 | 3.5 | 4.3 | 0.12 | 0.07 | 0.07 | 99 | 1009.8 |
| 20260506121958 | 52 | 58 | 0.0 | 0.9 | 0.05 | 0.06 | 0.06 | 99 | 1009.7 |
| 20260506121455 | 52 | 53 | 0.9 | 0.9 | 0.12 | 0.06 | 0.06 | 99 | 1009.8 |
| 20260506120952 | 52 | 46 | 2.6 | 4.3 | 0.07 | 0.05 | 0.05 | 99 | 1009.6 |
| 20260506120449 | 52 | 34 | 3.5 | 4.3 | 0.05 | 0.04 | 0.04 | 99 | 1009.4 |
| 20260506115946 | 53 | 41 | 0.9 | 5.2 | 0.05 | 0.04 | 0.04 | 99 | 1009.3 |
| 20260506115444 | 53 | 52 | 3.5 | 5.2 | 0.00 | 0.03 | 0.03 | 99 | 1008.9 |
| 20260506114943 | 53 | 44 | 1.7 | 2.6 | 0.00 | 0.03 | 0.03 | 99 | 1009.2 |
| 20260506114440 | 53 | 27 | 1.7 | 1.7 | 0.00 | 0.03 | 0.03 | 99 | 1009.2 |
| 20260506113938 | 53 | 69 | 1.7 | 2.6 | 0.00 | 0.03 | 0.03 | 99 | 1009.3 |
| 20260506113436 | 54 | 69 | 0.9 | 1.7 | 0.00 | 0.03 | 0.03 | 99 | 1008.9 |
| 20260506112932 | 54 | 10 | 0.9 | 1.7 | 0.00 | 0.03 | 0.03 | 99 | 1009.4 |
| 20260506112430 | 54 | 38 | 0.0 | 0.9 | 0.00 | 0.03 | 0.03 | 99 | 1009.2 |
| 20260506111927 | 54 | 59 | 0.9 | 0.9 | 0.00 | 0.03 | 0.03 | 99 | 1009.3 |
| 20260506111425 | 55 | 40 | 1.7 | 2.6 | 0.00 | 0.03 | 0.03 | 99 | 1008.7 |
| 20260506110922 | 55 | 20 | 2.6 | 2.6 | 0.00 | 0.03 | 0.03 | 99 | 1009.0 |
| 20260506110419 | 55 | 19 | 0.0 | 0.0 | 0.00 | 0.03 | 0.03 | 99 | 1009.1 |
| 20260506105910 | 55 | 22 | 0.9 | 0.9 | 0.07 | 0.03 | 0.03 | 99 | 1008.8 |
| 20260506105406 | 55 | 281 | 2.6 | 2.6 | 0.07 | 0.03 | 0.03 | 99 | 1009.0 |
| 20260506104904 | 55 | 32 | 0.0 | 0.0 | 0.00 | 0.02 | 0.02 | 99 | 1008.8 |
| 20260506104401 | 55 | 33 | 0.9 | 1.7 | 0.00 | 0.02 | 0.02 | 99 | 1008.3 |
| 20260506103859 | 55 | 333 | 2.6 | 2.6 | 0.00 | 0.02 | 0.02 | 99 | 1009.0 |
| 20260506103357 | 54 | 22 | 0.0 | 0.9 | 0.00 | 0.02 | 0.02 | 99 | 1008.8 |
| 20260506102854 | 54 | 271 | 0.9 | 1.7 | 0.00 | 0.02 | 0.02 | 99 | 1009.0 |
| 20260506102352 | 54 | 282 | 1.7 | 1.7 | 0.00 | 0.02 | 0.02 | 99 | 1009.0 |
| 20260506101849 | 54 | 276 | 0.9 | 1.7 | 0.00 | 0.02 | 0.02 | 99 | 1008.7 |
| 20260506101345 | 54 | 9 | 0.0 | 0.0 | 0.00 | 0.02 | 0.02 | 99 | 1008.5 |
| 20260506100843 | 54 | 44 | 0.0 | 0.0 | 0.00 | 0.02 | 0.02 | 99 | 1008.6 |
| 20260506100341 | 54 | 38 | 0.0 | 0.0 | 0.00 | 0.02 | 0.02 | 99 | 1008.5 |
| 20260506095839 | 54 | 44 | 0.0 | 0.0 | 0.00 | 0.02 | 0.02 | 99 | 1008.4 |
| 20260506095336 | 54 | 31 | 0.0 | 0.0 | 0.00 | 0.02 | 0.02 | 99 | 1008.3 |
| 20260506094833 | 54 | 28 | 0.0 | 0.0 | 0.00 | 0.02 | 0.02 | 99 | 1008.3 |
| 20260506094332 | 54 | 324 | 0.9 | 1.7 | 0.00 | 0.02 | 0.02 | 99 | 1008.5 |
| 20260506093829 | 54 | 346 | 0.0 | 0.9 | 0.00 | 0.02 | 0.02 | 99 | 1008.4 |
| 20260506093326 | 54 | 2 | 0.0 | 0.0 | 0.00 | 0.02 | 0.02 | 99 | 1008.4 |
| 20260506092824 | 54 | 352 | 0.0 | 0.0 | 0.00 | 0.02 | 0.02 | 99 | 1008.5 |
| 20260506092321 | 54 | 9 | 0.0 | 0.0 | 0.00 | 0.02 | 0.02 | 99 | 1008.6 |
| 20260506091818 | 53 | 18 | 0.0 | 0.0 | 0.00 | 0.02 | 0.02 | 99 | 1008.5 |
| 20260506091316 | 54 | 20 | 0.0 | 0.0 | 0.00 | 0.02 | 0.02 | 99 | 1008.6 |
| 20260506090814 | 54 | 5 | 0.0 | 0.9 | 0.00 | 0.02 | 0.02 | 99 | 1008.7 |
| 20260506090310 | 53 | 21 | 0.0 | 0.0 | 0.00 | 0.02 | 0.02 | 99 | 1008.7 |
| 20260506085807 | 54 | 9 | 0.0 | 0.0 | 0.00 | 0.02 | 0.02 | 99 | 1008.7 |
| 20260506085305 | 54 | 297 | 1.7 | 1.7 | 0.00 | 0.02 | 0.02 | 99 | 1008.7 |
| 20260506084800 | 54 | 358 | 0.9 | 0.9 | 0.00 | 0.02 | 0.02 | 99 | 1008.7 |
| 20260506084257 | 53 | 4 | 0.0 | 0.0 | 0.00 | 0.02 | 0.02 | 99 | 1008.7 |
| 20260506083754 | 54 | 343 | 0.9 | 0.9 | 0.00 | 0.02 | 0.02 | 99 | 1009.1 |
| 20260506083251 | 55 | 294 | 1.7 | 1.7 | 0.00 | 0.02 | 0.02 | 99 | 1009.0 |
| 20260506082748 | 55 | 7 | 0.0 | 0.0 | 0.00 | 0.02 | 0.02 | 99 | 1008.8 |
| 20260506082243 | 55 | 352 | 0.0 | 0.0 | 0.00 | 0.02 | 0.02 | 99 | 1009.2 |
| 20260506081741 | 55 | 300 | 0.9 | 0.9 | 0.00 | 0.02 | 0.02 | 99 | 1009.4 |
| 20260506081238 | 55 | 339 | 0.0 | 0.9 | 0.00 | 0.02 | 0.02 | 99 | 1009.3 |
| 20260506080737 | 55 | 35 | 0.0 | 0.0 | 0.00 | 0.02 | 0.02 | 99 | 1008.9 |
| 20260506080233 | 55 | 35 | 0.0 | 0.0 | 0.00 | 0.02 | 0.02 | 99 | 1009.1 |
| 20260506073217 | 55 | 16 | 0.0 | 0.0 | 0.00 | 0.02 | 0.02 | 99 | 1009.3 |
| 20260506072714 | 55 | 31 | 0.0 | 0.0 | 0.00 | 0.02 | 0.02 | 99 | 1009.3 |
| 20260506072212 | 56 | 25 | 0.0 | 0.0 | 0.00 | 0.02 | 0.02 | 99 | 1009.3 |
| 20260506071709 | 56 | 359 | 0.9 | 0.9 | 0.00 | 0.02 | 0.02 | 99 | 1009.3 |
| 20260506071207 | 56 | 24 | 0.0 | 0.0 | 0.00 | 0.02 | 0.02 | 99 | 1008.9 |
| 20260506070703 | 56 | 32 | 0.0 | 0.9 | 0.00 | 0.02 | 0.02 | 99 | 1009.3 |
| 20260506070201 | 56 | 21 | 0.9 | 0.9 | 0.00 | 0.02 | 0.02 | 99 | 1009.3 |
| 20260506062137 | 57 | 46 | 0.0 | 0.0 | 0.00 | 0.02 | 0.02 | 99 | 1009.4 |
| 20260506061633 | 57 | 346 | 0.9 | 0.9 | 0.00 | 0.02 | 0.02 | 99 | 1009.4 |
| 20260506061131 | 57 | 257 | 0.9 | 1.7 | 0.00 | 0.02 | 0.02 | 99 | 1009.5 |
| 20260506060629 | 57 | 22 | 0.0 | 0.9 | 0.00 | 0.02 | 0.02 | 99 | 1009.7 |
| 20260506060126 | 57 | 283 | 0.9 | 0.9 | 0.00 | 0.02 | 0.02 | 99 | 1009.5 |
| 20260506051058 | 58 | 65 | 0.9 | 0.9 | 0.00 | 0.02 | 0.02 | 99 | 1009.3 |
| 20260506050556 | 58 | 340 | 0.0 | 0.9 | 0.00 | 0.02 | 0.02 | 99 | 1009.7 |
| 20260506045046 | 59 | 329 | 2.6 | 2.6 | 0.07 | 0.01 | 0.01 | 99 | 1009.8 |
| 20260506044544 | 59 | 8 | 0.0 | 0.0 | 0.00 | 0.00 | 0.00 | 99 | 1010.0 |
| 20260506044041 | 59 | 359 | 0.0 | 0.9 | 0.00 | 0.00 | 0.00 | 98 | 1009.8 |
| 20260506043538 | 59 | 238 | 0.9 | 1.7 | 0.00 | 0.00 | 0.00 | 98 | 1009.9 |
| 20260506043036 | 59 | 288 | 0.9 | 0.9 | 0.00 | 0.00 | 0.00 | 97 | 1009.9 |
| 20260506042535 | 59 | 252 | 0.9 | 1.7 | 0.00 | 0.00 | 0.00 | 96 | 1009.7 |
| 20260506042033 | 60 | 298 | 1.7 | 1.7 | 0.00 | 0.00 | 0.00 | 95 | 1009.4 |
| 20260506041531 | 59 | 350 | 0.0 | 0.9 | 0.00 | 0.00 | 0.00 | 94 | 1009.7 |
| 20260506041027 | 60 | 21 | 0.0 | 0.0 | 0.00 | 0.00 | 0.00 | 94 | 1009.6 |
| 20260506040525 | 60 | 26 | 0.0 | 0.0 | 0.00 | 0.00 | 0.00 | 93 | 1009.3 |
| 20260506040021 | 60 | 5 | 0.0 | 0.0 | 0.00 | 0.02 | 0.02 | 92 | 1009.3 |
| 20260506035518 | 60 | 344 | 0.9 | 0.9 | 0.00 | 0.02 | 0.02 | 91 | 1009.4 |
| 20260506035015 | 61 | 44 | 0.0 | 0.0 | 0.00 | 0.02 | 0.02 | 91 | 1009.4 |
| 20260506034513 | 61 | 44 | 0.0 | 0.0 | 0.00 | 0.02 | 0.02 | 90 | 1009.3 |
| 20260506034009 | 61 | 80 | 0.9 | 0.9 | 0.00 | 0.02 | 0.02 | 90 | 1009.3 |
| 20260506033507 | 61 | 58 | 0.0 | 0.9 | 0.00 | 0.02 | 0.02 | 89 | 1009.3 |
| 20260506033004 | 62 | 79 | 0.0 | 0.9 | 0.00 | 0.02 | 0.02 | 89 | 1009.1 |
| 20260506032501 | 61 | 284 | 1.7 | 1.7 | 0.00 | 0.02 | 0.02 | 89 | 1009.2 |
| 20260506031956 | 61 | 214 | 0.9 | 0.9 | 0.00 | 0.02 | 0.02 | 90 | 1009.1 |
| 20260506031455 | 61 | 286 | 2.6 | 2.6 | 0.00 | 0.02 | 0.02 | 88 | 1008.9 |
| 20260506030952 | 61 | 142 | 0.0 | 0.9 | 0.00 | 0.02 | 0.02 | 89 | 1009.1 |
| 20260506030450 | 61 | 258 | 0.9 | 0.9 | 0.00 | 0.02 | 0.02 | 88 | 1009.1 |
| 20260506025946 | 61 | 238 | 0.9 | 0.9 | 0.00 | 0.02 | 0.02 | 88 | 1008.9 |
| 20260506025443 | 62 | 241 | 1.7 | 1.7 | 0.00 | 0.02 | 0.02 | 87 | 1008.9 |
| 20260506024940 | 61 | 267 | 1.7 | 1.7 | 0.00 | 0.02 | 0.02 | 87 | 1008.9 |
| 20260506024437 | 61 | 149 | 0.9 | 0.9 | 0.00 | 0.02 | 0.02 | 87 | 1008.6 |
| 20260506023932 | 61 | 44 | 0.0 | 0.0 | 0.00 | 0.02 | 0.02 | 87 | 1008.7 |
| 20260506023430 | 61 | 318 | 0.0 | 0.9 | 0.00 | 0.02 | 0.02 | 86 | 1008.5 |
| 20260506022926 | 61 | 248 | 0.9 | 0.9 | 0.00 | 0.02 | 0.02 | 86 | 1008.6 |
| 20260506022424 | 62 | 269 | 1.7 | 1.7 | 0.00 | 0.02 | 0.02 | 85 | 1008.7 |
| 20260506021922 | 62 | 219 | 0.9 | 0.9 | 0.00 | 0.02 | 0.02 | 84 | 1008.7 |
| 20260506021419 | 61 | 292 | 0.9 | 0.9 | 0.00 | 0.02 | 0.02 | 86 | 1008.6 |
| 20260506020916 | 61 | 353 | 0.0 | 0.0 | 0.00 | 0.02 | 0.02 | 86 | 1008.7 |
| 20260506020414 | 61 | 29 | 0.0 | 0.0 | 0.00 | 0.02 | 0.02 | 87 | 1008.6 |
| 20260506015911 | 60 | 354 | 0.0 | 0.9 | 0.00 | 0.02 | 0.02 | 88 | 1008.5 |
| 20260506015408 | 61 | 40 | 0.0 | 0.0 | 0.00 | 0.02 | 0.02 | 87 | 1008.4 |
| 20260506014905 | 61 | 326 | 0.9 | 0.9 | 0.00 | 0.02 | 0.02 | 86 | 1008.5 |
| 20260506014402 | 62 | 339 | 0.0 | 0.9 | 0.00 | 0.02 | 0.02 | 84 | 1008.3 |
| 20260506013858 | 62 | 24 | 0.0 | 0.9 | 0.00 | 0.02 | 0.02 | 84 | 1008.5 |
| 20260506013356 | 62 | 146 | 0.9 | 0.9 | 0.00 | 0.02 | 0.02 | 84 | 1008.3 |
| 20260506012852 | 63 | 69 | 0.0 | 0.9 | 0.00 | 0.02 | 0.02 | 82 | 1008.0 |
| 20260506012349 | 63 | 179 | 0.9 | 0.9 | 0.00 | 0.02 | 0.02 | 82 | 1008.3 |
| 20260506011846 | 63 | 158 | 1.7 | 1.7 | 0.00 | 0.02 | 0.02 | 81 | 1007.9 |
| 20260506011343 | 63 | 245 | 1.7 | 1.7 | 0.00 | 0.02 | 0.02 | 81 | 1008.2 |
| 20260506010840 | 63 | 314 | 0.9 | 0.9 | 0.00 | 0.02 | 0.02 | 80 | 1008.1 |
| 20260506010338 | 62 | 163 | 4.3 | 5.2 | 0.00 | 0.02 | 0.02 | 81 | 1008.0 |
| 20260506005835 | 61 | 262 | 1.7 | 1.7 | 0.00 | 0.02 | 0.02 | 83 | 1007.9 |
| 20260506005332 | 60 | 215 | 0.9 | 0.9 | 0.00 | 0.02 | 0.02 | 84 | 1007.5 |
| 20260506004827 | 61 | 248 | 2.6 | 2.6 | 0.00 | 0.02 | 0.02 | 84 | 1007.5 |
| 20260506004326 | 62 | 329 | 0.0 | 0.9 | 0.00 | 0.02 | 0.02 | 81 | 1007.5 |
| 20260506003821 | 62 | 224 | 0.0 | 0.0 | 0.00 | 0.02 | 0.02 | 82 | 1007.4 |
| 20260506003318 | 60 | 259 | 0.9 | 0.9 | 0.00 | 0.02 | 0.02 | 84 | 1007.4 |
| 20260506002814 | 60 | 240 | 0.9 | 1.7 | 0.00 | 0.02 | 0.02 | 85 | 1007.1 |
| 20260506002310 | 63 | 245 | 2.6 | 2.6 | 0.00 | 0.02 | 0.02 | 78 | 1007.6 |
| 20260506001806 | 63 | 247 | 1.7 | 1.7 | 0.00 | 0.02 | 0.02 | 77 | 1007.3 |
| 20260506001304 | 65 | 60 | 0.9 | 0.9 | 0.00 | 0.02 | 0.02 | 74 | 1007.2 |
| 20260506000801 | 65 | 211 | 1.7 | 1.7 | 0.00 | 0.02 | 0.02 | 74 | 1007.2 |
| 20260506000259 | 65 | 194 | 1.7 | 1.7 | 0.00 | 0.02 | 0.02 | 73 | 1007.2 |
| 20260505235755 | 66 | 264 | 1.7 | 1.7 | 0.00 | 0.02 | 0.02 | 73 | 1007.2 |
| 20260505235252 | 66 | 190 | 2.6 | 2.6 | 0.00 | 0.02 | 0.02 | 72 | 1007.2 |
| 20260505234749 | 66 | 150 | 0.9 | 0.9 | 0.00 | 0.02 | 0.02 | 72 | 1007.1 |
| 20260505234247 | 66 | 129 | 1.7 | 1.7 | 0.00 | 0.02 | 0.02 | 73 | 1007.3 |
| 20260505233743 | 66 | 152 | 1.7 | 1.7 | 0.00 | 0.02 | 0.02 | 74 | 1006.8 |
| 20260505233242 | 66 | 319 | 0.9 | 1.7 | 0.00 | 0.02 | 0.02 | 72 | 1006.6 |
| 20260505232738 | 67 | 228 | 1.7 | 2.6 | 0.00 | 0.02 | 0.02 | 70 | 1006.5 |
| 20260505232236 | 67 | 274 | 0.0 | 0.9 | 0.00 | 0.02 | 0.02 | 70 | 1006.8 |
| 20260505231732 | 67 | 119 | 3.5 | 4.3 | 0.00 | 0.02 | 0.02 | 70 | 1006.7 |
| 20260505231231 | 67 | 169 | 4.3 | 5.2 | 0.00 | 0.02 | 0.02 | 70 | 1006.6 |
| 20260505230729 | 68 | 275 | 0.9 | 1.7 | 0.00 | 0.02 | 0.02 | 67 | 1006.6 |
| 20260505230226 | 68 | 274 | 6.1 | 7.0 | 0.00 | 0.02 | 0.02 | 66 | 1006.2 |
| 20260505225722 | 67 | 299 | 5.2 | 6.1 | 0.00 | 0.02 | 0.02 | 71 | 1006.4 |
| 20260505225219 | 68 | 130 | 1.7 | 1.7 | 0.00 | 0.02 | 0.02 | 70 | 1006.4 |
| 20260505224715 | 67 | 304 | 1.7 | 4.3 | 0.00 | 0.02 | 0.02 | 69 | 1006.6 |
| 20260505224213 | 68 | 253 | 1.7 | 1.7 | 0.00 | 0.02 | 0.02 | 69 | 1006.7 |
| 20260505223710 | 68 | 268 | 2.6 | 4.3 | 0.00 | 0.02 | 0.02 | 67 | 1007.0 |
| 20260505223206 | 68 | 302 | 3.5 | 4.3 | 0.00 | 0.02 | 0.02 | 68 | 1006.8 |
| 20260505222702 | 68 | 136 | 7.0 | 8.7 | 0.00 | 0.02 | 0.02 | 68 | 1006.6 |
| 20260505222158 | 68 | 267 | 2.6 | 2.6 | 0.00 | 0.02 | 0.02 | 69 | 1006.7 |
| 20260505221656 | 68 | 225 | 2.6 | 4.3 | 0.00 | 0.02 | 0.02 | 68 | 1006.6 |
| 20260505221152 | 68 | 147 | 4.3 | 5.2 | 0.00 | 0.02 | 0.02 | 67 | 1006.3 |
| 20260505220649 | 69 | 142 | 7.0 | 8.7 | 0.00 | 0.02 | 0.02 | 64 | 1005.9 |
| 20260505220147 | 68 | 162 | 4.3 | 5.2 | 0.00 | 0.02 | 0.02 | 66 | 1005.9 |
| 20260505215644 | 68 | 149 | 2.6 | 4.3 | 0.00 | 0.02 | 0.02 | 68 | 1005.8 |
| 20260505215142 | 67 | 181 | 0.9 | 2.6 | 0.00 | 0.02 | 0.02 | 69 | 1005.7 |
| 20260505214640 | 68 | 229 | 3.5 | 5.2 | 0.00 | 0.02 | 0.02 | 68 | 1005.7 |
| 20260505214137 | 68 | 305 | 5.2 | 7.0 | 0.00 | 0.02 | 0.02 | 69 | 1005.8 |
| 20260505213635 | 68 | 244 | 9.6 | 13.9 | 0.00 | 0.02 | 0.02 | 68 | 1005.7 |
| 20260505213131 | 68 | 291 | 4.3 | 5.2 | 0.00 | 0.02 | 0.02 | 69 | 1005.9 |
| 20260505212626 | 68 | 319 | 8.7 | 13.0 | 0.00 | 0.02 | 0.02 | 68 | 1005.9 |
| 20260505212124 | 68 | 273 | 4.3 | 5.2 | 0.00 | 0.02 | 0.02 | 68 | 1006.3 |
| 20260505211621 | 69 | 291 | 5.2 | 6.1 | 0.00 | 0.02 | 0.02 | 68 | 1006.3 |
| 20260505211119 | 69 | 259 | 8.7 | 9.6 | 0.00 | 0.02 | 0.02 | 67 | 1006.1 |
| 20260505210615 | 71 | 306 | 13.0 | 15.6 | 0.00 | 0.02 | 0.02 | 65 | 1006.0 |
| 20260505210112 | 71 | 221 | 9.6 | 11.3 | 0.00 | 0.02 | 0.02 | 62 | 1005.6 |
| 20260505205610 | 71 | 334 | 4.3 | 5.2 | 0.00 | 0.02 | 0.02 | 66 | 1005.7 |
| 20260505205107 | 70 | 246 | 6.1 | 7.8 | 0.00 | 0.02 | 0.02 | 69 | 1005.3 |
| 20260505204604 | 70 | 304 | 4.3 | 5.2 | 0.00 | 0.02 | 0.02 | 69 | 1004.9 |
| 20260505204102 | 70 | 48 | 0.9 | 0.9 | 0.00 | 0.02 | 0.02 | 69 | 1004.8 |
| 20260505203558 | 70 | 226 | 3.5 | 4.3 | 0.00 | 0.02 | 0.02 | 69 | 1004.8 |
| 20260505203055 | 69 | 290 | 5.2 | 6.1 | 0.00 | 0.02 | 0.02 | 71 | 1004.7 |